Theta_e
336 336 335 335 335 334 334 334 333 332 333 334 336 337 337 337 337 336 330 330 329 328 326 326 324 323 321 323 322 323 323 325 326 326 326 326 326 326 326 326 324 324 324 324 325 325 324 322 321 321 322 322 322 322 320 320 321 320 321 320 319 320 319 317 314 314 318 323 323 322 324 325 323 325 323 323 324 324 323 326 325 326 328 330 331
333 332 334 334 334 334 334 334 333 332 332 332 333 334 334 336 337 334 332 331 331 331 329 328 327 327 326 322 322 324 321 324 326 326 325 325 325 326 326 325 324 323 324 322 323 323 324 322 321 320 321 320 321 321 320 318 319 319 318 319 318 319 321 317 315 314 313 319 319 322 322 324 320 325 322 323 323 322 323 322 325 327 327 328 327
331 331 332 333 333 333 332 332 332 332 332 333 332 330 331 333 333 331 331 332 332 331 329 328 327 326 324 323 323 321 320 321 323 325 325 324 323 325 326 324 323 323 322 322 321 322 321 321 321 322 322 320 320 320 321 319 318 317 318 319 319 320 320 320 316 314 314 314 319 319 320 321 320 322 324 324 323 323 320 321 325 326 327 326 327
328 328 329 329 331 332 331 331 332 331 330 331 331 330 330 329 329 329 329 330 329 331 329 327 326 326 325 325 323 320 319 321 322 326 325 323 322 322 324 325 323 322 321 320 320 320 320 320 320 321 321 320 319 318 318 319 318 319 319 319 319 318 319 319 319 316 315 313 316 317 319 318 320 323 323 324 323 321 321 323 325 325 326 325 326
327 327 328 327 329 329 330 329 329 329 330 330 330 330 330 329 329 327 327 327 328 329 330 329 328 327 326 324 323 320 320 322 323 324 324 324 324 323 322 322 322 321 322 321 320 320 319 319 319 320 319 318 318 317 318 318 317 317 317 317 317 318 318 318 318 318 315 314 315 318 320 320 320 321 321 320 321 322 322 322 323 324 324 324 323
324 324 325 325 325 325 326 328 328 328 328 328 329 329 329 329 328 328 328 326 326 327 327 328 327 325 325 325 322 323 324 325 323 322 323 324 324 323 322 321 321 320 320 320 320 321 320 319 319 319 318 317 317 317 317 317 317 317 317 317 317 317 317 318 318 317 315 314 315 314 317 317 318 319 320 321 319 318 320 321 322 321 321 323 323
321 321 322 323 321 323 323 324 325 327 327 328 328 327 327 327 326 325 325 325 325 325 325 324 326 325 324 325 324 324 324 324 324 324 323 322 322 322 322 322 321 321 320 319 319 319 319 319 319 319 318 317 317 317 317 317 316 316 316 316 317 317 316 316 316 315 315 314 314 314 314 316 316 314 317 321 322 321 318 316 316 319 321 323 322
319 319 320 319 319 320 321 323 324 324 324 324 324 325 324 324 324 324 324 324 323 322 322 322 323 322 322 322 322 323 323 322 323 323 322 322 321 320 320 320 319 319 319 318 319 320 320 319 319 318 318 318 318 317 317 316 316 316 316 316 316 315 314 314 314 313 313 313 312 311 312 313 314 317 318 319 317 317 320 318 316 317 320 323 323
317 318 318 319 319 319 320 321 322 322 321 321 321 321 320 320 319 320 320 320 319 319 318 319 319 319 319 320 319 320 321 321 322 322 321 320 321 320 319 319 318 317 317 317 319 319 319 319 319 319 319 319 319 317 317 317 315 314 316 316 315 314 313 313 312 311 311 311 311 313 312 312 313 314 313 314 315 314 318 320 318 318 318 317 320
316 316 316 316 318 318 318 320 319 319 319 319 319 319 319 319 319 318 317 317 318 319 319 317 317 318 318 318 319 319 319 320 318 314 313 317 318 317 317 316 315 315 316 316 316 316 316 317 318 319 319 318 317 314 311 311 314 313 313 314 314 313 312 311 310 310 310 309 309 310 309 309 311 314 314 316 318 319 317 318 315 316 318 318 319
315 315 314 315 317 317 317 318 318 317 317 318 318 317 318 319 318 317 317 317 316 315 315 314 315 316 315 316 316 317 316 316 312 302 302 304 311 313 312 310 310 311 312 314 314 315 315 316 317 317 317 318 317 311 309 308 308 308 310 312 314 313 312 311 310 311 310 309 310 310 309 309 311 313 313 314 316 317 317 317 315 315 314 313 312
314 314 315 315 315 315 316 317 316 316 317 316 317 317 317 317 316 317 317 317 317 317 316 316 315 315 314 313 313 314 315 311 301 299 299 298 305 310 309 308 309 311 312 313 313 314 314 315 316 317 317 317 316 316 315 310 306 306 305 306 306 307 308 313 312 311 311 310 309 310 310 310 310 313 313 314 314 315 317 316 314 314 314 313 314
313 313 313 313 314 315 315 315 315 316 316 316 317 317 316 316 315 315 314 315 314 312 312 312 312 313 312 310 310 311 313 307 299 299 298 297 297 305 307 308 307 308 309 311 311 311 312 312 313 314 315 317 315 314 314 315 311 306 307 307 307 305 300 299 303 314 313 310 310 310 310 311 311 312 314 314 315 313 313 311 313 313 314 313 314
313 312 312 313 313 314 314 314 315 316 316 315 315 314 313 312 312 312 312 312 312 312 312 311 311 311 311 310 309 310 310 308 298 298 298 296 295 298 306 306 306 307 307 308 309 310 310 311 310 311 312 313 314 314 314 313 313 314 315 314 314 314 308 302 301 302 309 312 310 309 311 314 312 314 315 316 313 312 311 311 313 312 313 313 317
313 312 312 312 313 313 313 313 314 314 314 313 313 311 311 312 311 311 311 310 310 309 309 309 310 310 310 310 310 310 310 302 298 296 296 296 295 297 304 304 304 305 305 306 306 307 307 308 309 308 309 310 312 312 311 312 312 312 312 312 314 314 315 316 314 313 314 314 313 311 312 313 314 315 316 315 315 314 314 313 313 313 315 315 316
311 312 311 312 312 312 312 311 312 312 311 311 310 310 310 310 309 310 309 309 310 309 309 309 309 308 309 309 309 309 310 300 297 296 296 296 295 305 305 305 305 305 305 306 306 307 307 308 307 308 308 308 309 303 307 311 311 310 310 311 312 312 313 315 309 311 315 314 314 313 313 313 309 315 316 315 313 314 314 315 315 313 311 310 309
310 311 310 310 310 311 311 310 310 311 310 310 309 310 309 309 309 309 308 308 307 307 307 308 308 308 308 308 308 308 309 304 297 296 296 295 298 306 306 305 306 306 306 308 308 308 309 309 308 307 308 308 305 298 297 305 308 308 308 309 310 310 310 313 306 301 300 301 301 302 301 299 299 299 299 299 312 314 314 311 309 311 310 307 309
309 309 309 310 309 309 309 308 308 308 308 308 308 308 309 309 309 309 307 306 306 307 307 307 307 308 307 307 307 306 306 305 298 296 295 295 301 305 304 304 305 306 306 307 308 308 308 309 309 308 308 308 302 298 296 305 307 306 306 306 306 307 308 311 311 312 302 299 299 299 300 300 299 299 299 299 299 307 313 307 309 309 308 309 307
308 308 308 309 309 309 309 308 308 308 307 307 309 307 307 307 308 308 307 307 306 306 306 305 305 306 306 306 306 305 305 304 299 296 295 295 301 306 304 303 303 305 305 305 307 307 307 309 309 308 309 307 299 298 297 305 308 307 306 306 304 305 307 309 309 309 311 312 313 313 311 308 312 314 314 304 301 308 312 311 310 309 308 308 309
308 309 309 309 309 308 308 308 310 310 309 309 308 308 308 307 307 307 307 306 305 305 305 305 304 304 305 305 305 305 305 305 304 297 296 296 296 305 305 303 302 303 304 304 304 305 306 307 307 301 297 297 296 295 295 296 306 307 307 305 305 304 308 308 308 309 309 309 309 310 311 313 314 314 314 314 313 313 313 313 312 310 310 309 310
310 310 310 309 308 308 309 309 309 310 309 307 308 307 306 306 306 305 305 305 304 304 304 304 303 303 304 304 304 304 304 304 304 297 296 296 295 298 304 303 303 303 303 303 303 303 304 305 305 303 297 296 296 296 296 295 299 306 307 306 306 307 306 309 309 309 309 309 309 309 310 311 311 312 313 314 313 314 314 313 313 313 311 310 309
310 309 308 308 308 308 308 309 310 309 308 307 306 305 305 305 305 304 304 304 304 303 303 302 302 302 303 303 304 303 304 304 304 300 297 296 295 295 302 304 304 304 302 302 302 302 303 303 303 301 297 296 294 294 294 295 295 305 305 299 297 296 306 308 309 309 309 309 308 307 308 308 309 310 310 311 312 313 314 315 314 313 314 313 311
308 307 307 306 307 307 307 308 308 307 306 306 305 304 304 304 304 304 304 303 302 301 301 301 301 301 301 302 302 303 304 304 301 303 299 296 295 295 295 299 297 303 301 301 301 302 303 303 303 302 293 291 291 292 292 292 295 301 296 295 295 294 299 305 306 306 306 306 306 306 307 308 307 307 308 309 310 313 313 314 315 315 315 315 315
306 306 305 305 306 306 305 306 306 306 305 305 304 303 303 304 303 303 302 301 300 300 300 300 300 299 299 300 301 301 302 302 301 299 301 297 295 295 294 293 292 298 299 298 299 299 300 302 301 292 291 292 291 291 291 292 295 293 292 292 292 295 302 303 303 303 303 303 304 304 305 307 308 308 308 310 310 313 313 314 315 316 316 316 315
305 305 305 306 306 306 305 305 305 305 305 304 303 302 303 303 301 302 301 300 300 299 299 299 298 298 298 298 299 300 301 302 302 300 297 297 294 293 292 292 292 292 298 299 299 299 296 293 291 291 292 291 291 291 292 293 292 291 291 291 296 298 299 300 301 302 301 301 302 304 305 306 307 308 310 311 312 313 313 312 315 315 315 316 316
304 304 304 304 304 304 304 304 304 304 303 303 303 303 303 301 300 300 300 300 299 298 298 298 297 297 297 297 298 299 300 300 300 301 300 300 298 295 293 293 296 296 297 296 294 293 292 292 291 291 292 293 296 297 298 298 295 294 293 295 299 298 298 298 299 299 299 300 301 302 304 306 307 309 310 310 310 309 310 310 310 311 313 312 312
302 302 302 302 303 303 302 302 302 303 303 303 303 302 301 300 300 300 299 298 297 296 296 296 296 295 294 295 296 297 298 298 298 299 300 299 298 297 297 297 296 296 297 297 296 296 296 296 295 293 293 292 292 293 293 294 295 296 297 297 298 297 298 298 298 298 299 300 301 302 303 305 307 307 307 307 307 308 310 309 309 309 311 312 310
300 301 301 302 301 302 302 301 301 301 301 302 301 300 301 301 300 299 298 297 296 295 294 294 293 293 293 294 295 296 296 297 297 297 296 295 295 295 295 295 295 295 294 294 295 295 294 294 293 295 295 294 294 295 295 295 295 294 295 296 297 298 298 299 299 299 299 300 300 302 303 304 304 304 305 306 306 307 309 308 308 308 309 310 309
302 302 302 302 301 301 301 302 301 300 300 300 300 301 300 300 299 298 299 298 297 295 294 293 294 295 294 294 294 293 294 294 296 292 292 290 291 291 292 292 292 292 293 291 292 292 292 291 291 291 292 291 291 292 293 294 294 295 295 296 296 296 296 296 296 297 298 298 298 300 301 302 303 304 304 304 305 306 308 307 309 308 308 309 308
302 301 301 300 300 300 300 299 299 298 298 298 298 299 296 295 296 297 296 295 292 291 291 293 293 293 293 293 294 291 291 293 291 290 290 290 290 290 290 290 290 291 291 290 290 289 289 289 289 290 290 290 290 291 292 292 293 293 294 293 294 295 295 296 296 296 297 298 298 298 299 300 301 302 302 302 303 305 306 303 307 307 307 307 307
300 300 300 299 297 298 298 298 298 298 298 297 297 296 296 297 293 292 293 294 292 290 290 290 290 290 291 291 292 291 290 290 290 290 290 290 290 290 290 290 290 290 289 290 289 288 288 288 288 289 290 290 290 291 292 292 292 293 293 294 294 294 294 294 295 296 296 296 297 298 298 299 299 300 301 302 302 303 305 306 306 306 306 306 306
299 298 298 299 298 297 297 297 297 297 296 296 295 294 294 293 295 293 289 291 291 290 290 290 290 290 289 290 291 291 290 290 290 290 290 290 290 289 289 289 289 289 289 289 288 288 288 288 288 289 290 290 290 291 291 291 292 292 293 293 293 294 294 294 295 296 295 295 295 295 297 297 298 298 299 300 300 301 302 304 305 305 305 305 306
299 298 298 297 297 296 295 296 296 296 295 295 294 293 293 294 294 295 295 290 289 290 290 290 290 290 290 290 290 290 289 289 289 289 289 289 289 289 289 289 289 289 289 289 288 288 289 289 288 289 290 289 290 290 290 291 291 291 291 291 292 293 294 295 295 295 295 295 295 295 295 296 297 297 297 298 299 300 301 302 303 304 304 303 304
298 298 297 296 296 296 296 296 296 295 294 293 294 294 295 297 296 295 294 294 294 292 290 290 290 290 290 290 289 289 289 289 289 289 289 289 289 289 289 289 289 289 289 288 288 288 288 288 289 289 289 290 290 290 290 291 291 291 291 292 292 293 294 295 295 294 294 294 295 295 295 296 296 296 297 297 298 298 299 300 302 303 304 304 303
297 295 293 293 297 297 297 297 297 296 295 295 294 294 295 295 295 294 293 292 291 290 291 293 291 290 289 289 289 289 288 288 288 288 288 288 289 289 289 290 290 290 290 290 289 289 288 289 289 289 289 290 291 291 291 291 291 291 291 291 292 293 293 293 293 294 294 294 294 294 295 295 296 296 296 296 297 297 297 299 301 302 303 303 303
297 298 298 297 297 298 297 296 296 296 294 294 295 294 294 293 292 292 291 291 291 290 290 291 291 290 289 289 289 288 288 288 288 288 288 288 288 288 288 288 288 288 288 289 288 288 288 288 288 288 289 289 290 290 290 291 291 291 292 292 292 292 292 292 292 293 294 294 294 294 294 295 296 295 296 296 296 296 298 299 300 301 302 302 304
298 298 298 296 297 297 296 296 297 293 291 293 294 292 292 291 291 291 291 290 290 290 289 290 290 290 290 290 289 288 288 287 287 287 288 288 288 288 288 287 287 287 287 288 288 288 287 288 288 288 288 288 289 289 290 290 290 291 291 292 292 292 293 293 293 293 293 293 294 294 294 295 296 296 296 295 296 297 297 298 299 299 300 300 297
298 294 294 293 295 294 295 294 293 289 292 291 292 291 290 291 291 290 289 290 289 289 289 289 289 288 287 287 289 288 286 286 287 287 287 287 286 286 286 286 286 286 286 287 287 287 287 287 288 288 288 288 288 289 289 289 290 290 291 291 291 291 292 293 293 294 294 293 294 294 294 295 296 297 296 296 296 296 296 297 299 300 300 298 299
298 291 287 288 291 293 293 292 291 291 291 290 291 291 289 288 290 289 289 289 288 288 289 289 288 288 287 287 287 287 285 284 284 284 285 285 286 286 285 286 286 286 286 286 286 287 287 287 288 288 288 288 288 289 289 289 289 289 290 290 291 291 292 292 292 293 293 293 294 295 295 295 296 297 297 296 296 296 297 297 298 299 300 300 300
296 295 292 288 291 291 293 291 290 290 289 290 290 290 289 288 289 288 289 288 287 287 288 287 287 288 287 286 285 284 282 283 284 284 284 284 284 285 285 285 284 285 285 285 286 286 286 287 287 288 288 288 288 289 289 289 289 289 289 290 290 290 291 292 292 292 293 293 294 294 295 296 296 296 297 297 296 296 296 296 297 299 300 301 301
295 294 290 290 288 291 290 291 290 289 291 290 290 289 289 289 289 287 288 287 287 287 287 287 287 287 287 286 285 284 283 284 284 284 284 284 284 284 285 285 285 284 285 285 286 286 286 286 287 288 288 288 289 289 289 289 289 290 290 289 289 290 290 291 292 292 293 294 294 294 295 297 297 296 296 297 296 296 296 296 297 298 298 301 301
294 293 293 291 292 291 290 290 290 290 290 291 290 289 289 289 289 288 287 286 286 287 286 287 287 288 287 287 286 285 285 285 285 283 283 284 284 284 285 285 285 285 285 285 285 285 286 286 287 287 287 288 288 288 289 289 289 289 289 290 290 290 290 291 291 292 293 294 294 294 295 295 295 296 296 296 298 297 297 297 297 298 300 300 301
292 292 292 292 291 290 290 290 291 291 290 290 290 288 288 289 290 290 288 287 287 286 287 286 286 287 286 286 286 285 286 285 284 284 284 284 284 285 285 284 284 284 285 285 286 286 286 286 286 287 287 287 288 288 288 288 289 289 289 290 290 291 292 292 293 293 293 294 295 294 295 295 294 296 296 296 297 298 297 296 296 297 298 300 301
293 292 292 291 292 291 290 291 291 290 290 289 289 289 288 290 290 290 289 287 287 287 287 286 287 286 286 286 286 287 286 285 285 285 284 284 285 284 284 285 284 284 284 284 285 286 286 285 285 286 287 288 288 288 288 289 289 289 289 290 290 291 293 294 294 295 295 295 295 295 295 295 295 295 294 294 297 297 297 296 296 296 298 299 300
294 294 292 292 291 292 292 291 290 290 290 288 291 291 290 290 291 290 289 287 287 287 287 287 287 287 286 286 286 286 285 286 285 285 285 284 284 284 285 284 284 283 283 284 284 285 285 284 284 285 285 286 287 288 287 288 289 290 290 291 291 292 293 294 296 297 297 296 296 295 295 295 295 295 296 296 296 296 295 296 296 294 298 299 300
294 294 292 293 291 290 289 292 290 291 292 291 291 291 291 291 290 289 289 289 287 287 287 287 287 286 286 286 286 285 286 285 285 285 285 285 285 284 284 284 283 283 284 284 284 284 284 283 283 284 284 285 286 287 288 288 288 289 290 291 293 294 297 299 299 299 298 297 296 296 295 296 296 295 294 297 297 296 297 297 298 298 299 300 300
294 293 292 293 292 289 291 291 291 290 291 290 290 290 290 290 290 289 288 288 287 288 287 287 287 287 286 286 285 285 285 285 285 285 285 284 284 284 284 283 283 283 283 283 283 283 283 283 283 283 284 285 285 286 287 288 288 289 290 292 294 295 298 300 300 299 298 297 297 297 296 295 295 295 294 295 296 296 295 296 297 298 300 300 301
294 293 292 291 293 290 292 292 291 288 290 291 289 289 289 289 289 289 288 288 288 288 288 287 286 287 286 286 286 286 286 286 286 285 285 285 285 285 284 283 283 283 283 283 283 283 282 282 282 283 283 284 285 286 286 287 287 288 290 292 293 293 291 290 298 299 299 298 297 297 297 296 296 296 296 296 297 297 296 297 297 299 300 299 299
293 293 292 292 292 291 292 291 290 291 290 290 289 290 289 289 288 289 288 288 288 288 288 287 287 286 286 285 286 285 286 285 285 285 285 285 285 285 284 284 283 283 282 282 282 282 282 282 282 282 283 283 284 285 285 286 286 287 288 289 290 288 287 287 290 299 296 298 298 297 298 297 297 297 296 297 297 298 297 298 299 298 300 299 299
293 290 293 291 292 292 291 291 290 290 289 290 289 289 288 289 288 288 288 288 288 287 288 287 287 286 286 286 285 285 285 285 285 285 285 285 285 285 285 284 283 282 282 282 282 282 282 281 281 282 282 283 284 285 285 285 285 286 287 287 286 287 287 287 286 289 296 299 298 298 298 297 297 297 297 297 298 298 297 298 298 298 299 300 300
292 292 292 292 291 291 291 290 290 290 289 289 289 289 288 288 288 288 288 287 287 287 287 287 287 286 286 286 285 285 285 284 285 285 285 285 284 284 284 284 283 282 282 282 282 282 282 281 281 281 282 282 283 284 284 284 285 285 285 286 287 287 287 287 291 289 290 295 300 300 298 297 297 297 297 298 298 298 297 296 299 300 301 299 301
Wind_Speed
9 7 8 9 10 9 6 5 6 6 7 8 10 11 11 11 9 6 6 6 7 9 10 10 11 13 16 14 15 15 13 11 10 10 9 10 9 8 8 8 9 7 7 6 6 6 7 8 8 8 7 7 6 7 7 8 8 9 9 9 10 10 10 11 13 13 10 9 9 8 8 8 7 7 8 8 8 7 7 8 9 8 8 8 7
8 9 8 9 10 10 9 7 5 5 6 7 8 9 10 9 7 7 8 7 8 9 12 11 11 12 12 15 15 14 14 13 12 11 11 10 10 7 8 9 9 8 7 7 7 6 7 9 9 9 7 8 7 8 8 8 9 9 9 9 9 10 10 11 12 13 13 10 10 9 9 8 9 6 8 7 8 9 9 8 7 7 7 8 9
8 8 8 8 9 9 9 9 7 8 9 8 9 8 7 8 7 7 7 6 7 8 9 10 10 11 12 12 11 12 13 13 12 11 11 11 11 9 8 9 9 8 8 8 8 8 9 9 10 9 7 8 8 8 8 9 9 10 11 9 10 10 9 10 11 13 14 12 10 11 9 8 8 7 7 7 8 9 11 9 6 5 7 9 8
8 7 7 9 9 8 9 9 10 9 10 9 8 7 5 4 4 5 5 4 5 6 7 8 10 10 11 13 14 14 15 13 12 10 11 11 10 10 9 8 8 8 9 9 9 9 10 10 10 9 8 9 8 8 8 9 9 9 10 10 10 11 10 10 11 11 12 13 10 10 9 8 8 7 7 7 8 8 8 8 7 8 8 7 8
8 8 8 9 9 8 8 8 8 9 10 9 9 8 6 5 4 3 2 4 5 5 6 7 10 12 12 15 14 15 14 12 11 10 9 8 8 7 7 6 7 8 9 9 10 11 11 11 11 10 9 9 8 8 8 10 10 10 10 10 10 9 9 9 10 10 11 12 11 9 9 9 8 8 8 8 7 7 8 8 7 8 8 8 8
8 8 8 8 8 9 9 7 7 8 8 8 9 7 6 5 4 4 4 5 5 5 5 5 5 8 11 11 12 12 10 9 9 9 9 7 5 5 6 7 8 9 9 10 10 10 11 11 12 12 11 10 9 9 10 11 10 10 11 11 10 9 9 10 9 10 11 11 11 11 10 10 9 8 8 8 8 7 6 7 8 8 9 8 7
7 7 7 7 7 8 8 8 7 6 6 5 6 5 4 3 3 3 2 4 6 7 6 6 4 4 6 6 6 6 5 4 5 5 5 6 6 5 5 6 7 7 8 10 11 12 12 12 12 12 12 11 10 10 10 11 10 12 12 11 11 11 11 10 10 10 10 10 10 11 11 10 10 9 8 7 7 7 7 7 8 7 6 6 6
6 6 6 6 6 7 6 6 6 6 5 4 4 4 4 3 4 3 1 1 2 2 1 2 2 2 1 2 1 1 2 3 3 4 5 5 5 6 7 8 8 8 10 11 13 13 13 14 14 14 13 12 11 11 11 10 10 11 11 11 12 12 11 10 10 10 10 10 10 10 10 10 9 8 7 8 9 8 8 7 6 6 6 5 7
8 7 7 6 6 5 4 4 4 3 4 3 3 3 3 3 3 2 2 2 2 1 3 4 5 6 5 5 5 5 5 6 5 6 6 7 6 6 6 8 9 10 11 12 13 13 13 14 14 14 14 13 13 12 12 11 11 11 11 12 13 13 13 12 12 12 12 12 11 10 10 10 10 9 8 8 8 8 6 6 6 6 7 8 8
8 8 9 9 8 7 6 4 3 3 3 2 2 2 2 2 2 2 2 2 1 1 2 3 4 5 6 7 7 6 6 5 4 4 4 6 5 5 6 7 7 9 10 11 12 13 14 13 13 16 14 13 13 13 13 15 16 16 15 13 14 14 14 14 14 14 14 13 13 12 12 12 10 10 10 9 8 8 9 8 8 8 7 8 8
9 9 11 11 10 9 7 5 4 4 3 3 3 3 4 3 3 4 4 4 4 4 4 5 5 5 5 5 5 4 3 3 5 8 10 8 6 6 6 7 8 10 11 12 12 13 13 14 14 15 15 15 15 17 16 17 17 18 18 19 17 15 15 16 16 15 14 14 14 13 13 13 12 12 11 10 9 9 9 9 9 8 8 8 8
11 11 12 11 10 10 8 7 7 7 6 6 5 6 6 6 6 5 5 5 4 4 5 5 5 5 4 6 7 7 6 5 7 10 9 8 7 7 7 7 9 10 12 13 12 12 13 13 13 11 12 14 14 14 16 19 19 19 19 19 19 21 20 16 15 15 15 15 15 14 13 12 12 11 10 10 10 9 9 10 10 10 9 9 8
11 12 12 12 11 9 9 9 9 9 9 9 9 8 6 6 6 6 5 4 4 5 5 5 5 5 5 6 7 7 7 6 12 11 10 9 9 7 7 9 10 12 13 13 14 14 13 13 13 12 11 15 15 16 17 17 17 22 22 21 21 21 21 23 21 17 15 16 15 16 15 13 13 12 12 10 8 11 10 10 10 10 10 10 9
11 12 12 12 12 11 11 11 10 8 8 9 8 6 5 5 5 5 4 4 5 5 5 6 6 6 6 7 7 7 8 6 6 10 10 10 9 7 9 11 12 13 14 14 13 14 14 13 13 14 14 15 15 17 17 17 17 13 15 15 16 18 21 21 21 22 18 16 17 17 15 14 15 13 12 12 12 11 11 11 11 12 10 11 11
12 12 13 13 13 13 12 11 9 8 6 5 5 5 5 4 5 4 4 5 6 6 6 7 6 7 7 8 8 8 8 6 7 9 9 9 9 8 9 10 11 13 13 13 14 14 14 14 15 15 14 13 13 15 17 17 16 15 17 16 16 16 15 16 16 15 14 14 17 19 19 17 17 16 15 13 14 12 12 12 11 11 12 12 12
13 12 13 12 13 12 11 11 9 8 7 6 6 6 5 5 6 5 6 6 6 6 7 7 8 9 9 9 9 10 9 6 9 10 10 9 9 9 11 12 13 13 14 14 14 13 14 14 13 14 15 16 16 15 14 13 15 17 17 17 18 17 18 16 15 16 17 16 16 17 18 18 18 17 16 14 14 13 12 12 12 12 12 12 13
14 14 14 13 13 12 11 10 10 10 10 9 8 8 7 8 9 8 9 9 9 9 9 10 9 10 11 11 11 11 11 9 7 10 10 10 9 11 12 12 13 14 14 13 13 14 14 16 17 16 17 17 15 10 10 10 14 16 17 18 17 17 18 14 14 15 14 14 15 16 15 13 11 10 11 9 6 7 9 11 12 10 12 13 13
14 14 14 14 13 12 12 12 11 11 10 11 11 9 9 10 10 9 10 11 11 12 12 12 12 12 13 14 14 15 14 14 10 8 11 12 11 13 15 14 14 14 14 14 13 14 16 17 17 16 15 15 14 10 8 8 14 16 16 17 17 18 17 15 14 14 14 16 17 17 16 16 15 15 14 11 9 7 12 16 15 12 13 13 13
15 15 15 14 13 12 10 10 10 10 10 10 9 10 10 10 9 10 10 11 12 12 13 13 13 13 14 15 16 16 16 16 13 9 9 11 10 13 15 14 15 15 14 14 14 14 14 14 17 15 15 15 14 11 7 6 12 14 15 15 17 18 16 16 16 18 15 13 11 13 14 14 14 14 16 17 16 14 14 16 14 14 14 13 13
16 15 14 12 11 11 11 11 10 9 9 9 9 9 8 9 11 11 11 12 12 13 13 14 16 15 15 15 15 15 16 15 14 11 10 9 11 11 13 13 13 14 14 13 13 13 13 13 13 13 11 10 9 8 8 8 11 13 13 14 14 15 13 14 16 16 16 17 16 15 16 16 17 16 17 17 15 17 17 16 15 15 15 14 14
15 14 11 11 11 11 10 9 10 9 9 9 8 9 9 10 11 11 12 12 13 13 14 15 16 16 15 15 15 15 13 14 14 12 10 10 11 12 12 14 14 13 13 14 13 13 12 12 11 12 10 8 10 12 12 11 10 11 14 15 15 12 10 11 13 15 13 14 15 16 15 16 15 14 14 14 15 15 15 16 16 16 16 15 15
13 12 12 11 9 9 9 9 9 8 8 8 8 8 9 10 11 12 12 13 14 15 15 15 14 15 14 14 14 14 15 16 15 15 13 11 11 13 12 14 12 13 14 13 12 13 12 12 12 11 11 8 5 7 9 10 11 9 14 15 13 13 14 15 14 13 12 12 12 13 15 15 15 14 14 14 14 14 14 14 15 17 17 16 16
12 12 11 11 8 8 9 10 8 7 8 8 8 9 9 11 12 12 13 14 15 16 15 13 13 14 13 13 12 13 13 13 13 13 14 11 10 11 12 12 11 10 13 13 14 14 14 14 13 13 8 10 7 4 4 5 7 10 13 12 12 11 10 13 14 15 15 15 14 14 13 13 14 14 14 13 14 14 14 14 15 16 16 16 17
11 11 10 11 10 10 10 10 9 9 8 8 9 9 10 12 12 12 13 13 13 13 12 11 12 12 12 11 11 11 11 11 11 11 8 6 5 8 8 7 6 6 8 9 11 13 14 15 13 15 14 12 9 9 9 8 10 11 11 10 8 8 10 16 16 16 15 16 16 16 15 14 14 13 14 14 14 13 14 14 14 15 15 15 17
10 9 9 8 8 9 9 9 9 7 7 8 9 10 11 11 11 12 12 12 11 11 10 10 11 11 11 12 11 11 12 12 12 11 7 6 8 8 9 11 12 11 10 14 15 14 14 16 18 19 18 19 18 16 14 15 15 15 14 14 13 11 11 15 16 16 17 16 17 16 16 15 14 14 14 14 14 13 13 13 13 14 14 15 16
11 10 9 8 8 7 6 6 6 6 6 7 8 9 10 11 11 10 10 10 9 9 9 10 10 11 11 11 11 12 12 12 13 13 13 14 11 9 11 12 12 11 11 12 14 17 18 21 21 21 20 17 15 15 16 17 16 16 17 17 15 15 17 16 17 17 16 17 16 17 16 15 16 16 16 15 14 14 13 13 13 13 13 13 14
7 5 5 5 5 5 5 6 7 8 9 9 9 9 10 9 9 9 8 9 8 9 9 9 9 9 9 10 11 12 12 13 12 12 12 10 8 9 9 7 7 9 9 11 12 13 13 13 10 10 11 14 14 16 17 16 14 13 13 15 16 16 17 17 18 18 18 16 17 15 16 16 16 16 16 17 16 15 14 14 14 14 13 13 14
5 5 5 5 6 8 9 9 9 9 10 10 10 9 9 8 8 8 8 8 7 7 9 9 9 10 10 11 12 12 12 12 12 11 9 9 10 11 11 11 12 12 13 12 12 13 14 14 15 14 13 13 13 12 13 13 14 15 15 15 15 16 19 22 21 17 17 17 16 17 16 16 17 16 17 16 17 15 15 15 15 15 15 13 14
6 9 9 9 10 10 10 11 11 11 10 9 9 8 7 7 7 7 6 5 4 7 10 10 9 10 10 10 10 12 12 12 10 12 14 15 13 12 12 12 11 11 12 15 15 15 14 14 14 15 14 14 14 13 13 14 14 14 15 14 14 14 15 15 16 17 17 17 18 17 18 17 17 17 16 16 17 17 15 15 17 16 15 15 16
9 10 10 10 10 10 10 9 9 8 8 7 7 7 5 2 3 6 7 4 1 2 4 8 9 9 10 9 9 10 11 12 17 19 18 16 16 16 16 18 18 17 20 20 17 16 15 14 13 13 14 14 14 14 14 14 14 14 14 15 14 14 14 14 15 16 16 17 17 17 17 17 17 16 17 16 17 17 17 18 16 15 17 16 16
9 10 9 9 7 7 8 7 7 7 6 6 6 6 6 5 6 10 7 4 3 4 6 7 8 8 9 10 11 13 14 16 16 15 16 17 18 19 19 18 18 18 17 16 15 14 14 13 13 13 14 14 15 15 15 14 15 14 14 14 14 14 15 15 15 15 16 16 16 17 17 16 17 16 16 17 17 15 16 18 16 16 17 17 17
9 8 7 7 6 6 7 7 6 6 5 5 5 5 6 6 6 7 11 8 6 3 6 8 9 10 11 11 12 12 13 15 16 18 19 19 20 19 19 19 19 19 18 16 15 14 13 14 14 14 14 15 15 15 14 14 14 14 14 14 14 14 14 15 15 16 15 15 15 15 16 17 15 17 17 15 17 17 17 17 17 18 17 18 17
7 6 6 6 5 5 5 5 5 4 5 5 4 4 5 5 6 6 2 11 10 4 5 7 9 10 12 11 11 12 14 16 18 19 21 21 20 19 20 21 20 19 17 14 13 14 14 14 14 14 14 14 14 14 14 14 14 13 14 13 14 14 14 15 13 14 14 15 14 15 14 15 16 15 15 16 15 17 17 17 17 17 19 16 17
5 5 6 5 5 4 4 4 4 4 3 3 4 4 4 6 7 7 7 8 5 3 8 10 9 8 8 10 11 13 16 18 20 21 21 20 20 20 19 18 19 19 17 14 13 13 13 13 14 14 14 14 13 13 14 14 14 13 14 14 14 14 15 14 14 15 15 15 16 14 15 15 15 16 15 16 16 16 17 17 17 19 17 18 17
4 3 6 3 4 4 4 4 4 4 3 4 4 5 4 6 6 6 7 6 5 5 7 6 5 7 9 10 11 14 16 18 19 18 19 19 19 19 19 14 11 9 9 10 11 11 12 12 13 13 13 13 13 14 15 15 14 14 14 14 14 15 13 15 13 15 14 16 15 16 15 16 16 16 16 15 16 16 16 17 18 17 19 17 17
3 4 3 1 3 4 4 4 4 4 5 5 5 5 5 5 5 6 6 5 5 5 5 6 7 8 10 9 9 12 15 17 19 20 20 20 19 19 12 10 11 11 11 11 11 11 11 11 11 13 13 13 13 13 13 13 13 13 14 14 15 14 15 13 15 14 16 14 15 16 16 17 17 16 15 17 17 17 17 16 17 17 17 18 17
4 4 4 5 5 5 4 4 4 6 5 5 5 5 5 5 5 5 5 5 6 6 5 5 7 7 7 7 12 14 16 18 18 18 16 16 17 11 9 10 10 12 12 13 12 12 12 12 11 11 12 13 13 13 13 13 13 14 15 14 15 15 14 15 15 15 15 16 16 14 16 17 18 18 18 17 17 17 17 17 16 17 18 17 13
4 5 6 7 6 4 4 4 5 5 3 5 4 5 5 5 6 5 5 5 6 6 4 4 5 5 7 8 11 10 13 15 16 13 11 11 11 9 9 10 11 11 12 12 13 13 14 14 13 13 13 13 13 13 13 13 13 13 13 14 15 14 17 14 15 16 16 17 16 16 15 18 17 17 17 18 17 18 16 17 17 16 15 15 14
3 7 2 7 5 6 5 6 5 5 5 5 5 5 5 6 6 6 6 6 5 4 5 4 4 4 5 7 10 11 12 10 9 10 10 10 9 9 9 9 10 10 11 11 11 13 13 14 14 14 14 13 13 13 13 13 12 12 12 12 12 13 14 14 13 14 14 17 17 16 17 16 19 17 17 17 18 16 17 18 17 17 17 18 17
3 2 4 6 6 4 5 4 5 4 4 5 5 5 5 6 6 7 7 6 5 5 5 5 5 4 4 6 9 10 11 10 8 9 9 9 10 9 9 10 10 10 11 11 11 12 13 13 13 13 14 14 13 13 12 12 11 11 12 12 12 12 13 14 14 14 14 15 16 17 14 16 17 18 17 17 17 17 16 16 17 16 17 16 17
3 3 3 4 5 5 4 4 4 5 5 5 5 5 5 5 5 5 6 6 5 5 5 5 5 5 5 8 10 12 9 8 8 8 8 9 10 9 9 10 10 11 11 11 11 10 11 12 13 14 15 14 14 13 13 12 12 11 11 13 14 15 15 15 14 14 15 15 15 15 15 11 12 15 16 18 15 16 16 16 15 15 15 16 17
4 4 5 4 4 5 4 5 4 4 4 4 5 5 5 5 5 5 6 5 6 6 5 5 5 6 6 6 10 13 9 6 8 8 8 8 9 9 9 9 9 10 11 11 11 12 11 10 11 13 15 14 13 13 12 11 10 10 10 11 13 14 15 16 15 15 16 15 16 17 16 14 14 15 17 15 17 17 18 17 16 15 16 17 15
4 4 4 4 4 5 5 4 5 5 5 5 5 5 5 5 5 5 6 5 7 6 5 6 6 6 7 10 10 10 7 7 8 9 8 9 9 10 10 10 10 11 11 11 10 11 11 12 13 13 14 14 13 13 13 12 11 11 11 10 12 15 16 16 15 15 15 15 15 15 16 15 14 14 16 14 16 15 16 17 15 15 15 16 16
3 3 4 4 4 4 4 5 5 4 5 4 4 4 5 6 6 6 6 5 6 6 6 6 7 7 8 8 10 9 8 8 8 8 9 9 9 10 10 10 11 11 11 11 10 10 12 13 14 13 14 13 12 14 12 12 12 12 10 11 12 13 12 12 13 15 15 14 15 14 14 15 15 16 15 13 18 17 18 17 14 14 14 15 17
4 4 4 4 5 4 4 4 5 4 5 4 5 5 5 6 6 6 7 5 7 7 6 7 8 7 9 8 9 9 9 9 10 10 9 9 9 10 10 11 11 12 11 12 12 13 13 13 14 14 14 12 10 11 12 12 10 9 9 10 9 11 12 13 14 14 14 14 13 14 14 14 15 16 18 16 15 17 15 17 16 14 14 14 14
4 4 4 4 4 4 3 5 5 4 5 5 5 6 6 6 6 6 7 7 8 8 7 8 7 7 8 8 9 9 9 9 9 9 9 9 9 10 10 10 11 11 11 11 12 13 13 13 14 14 14 13 12 11 10 11 10 9 10 9 10 11 13 13 13 11 10 12 13 13 14 15 16 15 16 15 14 16 17 17 16 17 17 15 17
4 4 4 4 4 3 4 3 5 5 5 5 6 6 6 6 7 7 6 7 8 8 8 6 7 7 7 8 9 9 9 10 10 10 10 10 10 10 10 11 11 12 12 11 11 12 12 13 13 14 14 14 14 13 14 13 13 10 9 8 9 9 9 8 9 9 9 12 14 13 14 13 13 13 15 14 14 15 14 13 15 18 17 15 16
4 4 4 3 4 3 4 4 4 4 5 5 6 6 6 6 7 7 7 7 8 8 8 7 7 7 8 8 9 9 9 9 10 10 10 10 10 11 10 11 11 12 12 12 12 11 12 12 13 14 15 15 14 13 13 14 12 10 9 8 8 8 11 12 7 9 9 10 12 14 15 15 15 16 16 18 18 16 15 13 13 13 15 14 15
5 5 4 5 5 5 5 5 5 6 6 6 6 6 7 6 7 7 8 8 8 8 8 9 9 8 8 8 9 9 9 11 10 10 10 11 11 11 11 11 12 12 12 13 13 13 12 13 13 13 14 14 13 13 13 14 13 11 11 10 11 16 16 13 9 8 10 10 11 13 13 14 16 16 17 18 18 15 14 14 14 13 12 13 13
5 4 5 4 5 5 5 5 6 6 6 6 6 6 7 7 7 8 8 8 8 8 9 9 9 10 10 10 10 10 10 10 10 11 11 11 12 12 12 12 12 12 12 13 13 13 13 13 13 12 13 14 14 12 11 12 12 12 12 13 18 16 13 11 11 12 11 9 11 11 12 13 14 15 15 16 14 13 14 13 15 11 14 14 13
5 5 5 6 5 5 6 6 6 6 6 7 7 7 7 7 7 7 8 8 8 9 9 9 9 10 10 10 10 10 10 10 10 11 11 11 12 13 13 13 13 13 13 14 14 14 14 13 12 12 13 15 14 13 13 14 12 15 20 22 19 17 13 9 7 11 15 13 11 10 11 12 13 13 13 14 15 14 14 15 15 13 13 13 12
Wind_Direction
342 338 330 328 326 326 320 282 265 254 243 242 252 258 261 261 257 215 183 192 187 180 183 190 196 205 208 214 219 211 206 206 205 208 209 213 216 217 214 212 220 222 225 227 230 238 246 252 256 254 252 254 258 262 265 266 265 263 262 261 260 257 256 260 268 275 274 273 278 280 284 286 280 286 290 293 298 299 294 298 300 301 299 292 288
348 339 339 332 330 330 325 322 304 291 278 275 273 278 274 271 263 232 231 220 214 205 202 203 205 212 211 213 215 211 208 208 206 208 211 214 216 216 221 223 227 228 227 237 240 246 246 249 254 257 252 251 253 258 265 268 267 265 261 258 257 256 251 259 267 273 277 275 275 277 278 281 284 281 282 288 293 295 299 294 288 294 295 296 292
357 349 339 334 336 336 332 327 327 315 307 301 295 285 277 276 269 253 246 241 216 220 215 211 219 223 223 222 219 220 221 216 213 211 214 216 218 217 220 229 231 234 237 241 249 252 249 244 247 251 246 246 248 256 260 265 264 264 263 262 262 260 258 257 264 269 276 277 280 282 279 278 279 286 285 284 288 294 292 291 297 295 296 283 277
357 355 347 339 337 337 337 333 326 321 315 316 314 307 300 291 272 262 257 248 240 223 225 218 217 223 223 226 223 221 221 218 217 215 220 223 226 227 219 221 229 239 245 249 250 249 251 251 250 247 246 247 250 255 258 258 256 258 260 258 257 256 256 256 254 263 269 276 274 278 282 283 277 278 278 277 276 277 286 297 289 279 281 285 282
358 354 352 342 340 339 336 335 328 324 321 320 319 311 305 293 278 263 276 264 249 230 223 224 232 227 225 231 230 225 223 220 217 217 223 227 228 228 233 237 240 243 246 249 250 251 251 251 251 250 247 249 248 252 256 255 256 258 259 259 258 256 253 251 255 255 261 266 271 271 278 275 275 276 275 277 275 272 277 274 280 287 281 281 285
2 359 357 349 348 348 343 337 333 324 320 318 315 315 308 302 297 281 281 278 268 256 245 231 227 236 237 236 232 233 226 222 225 225 217 200 199 221 238 248 254 257 259 256 254 252 252 253 254 250 249 248 250 253 256 258 258 258 258 259 261 260 257 257 256 259 263 266 270 273 267 271 272 265 269 271 272 274 273 279 281 277 276 272 272
4 3 1 355 352 353 344 343 336 330 326 322 316 307 305 290 275 279 275 258 258 252 245 239 232 245 244 240 238 236 218 191 198 194 190 198 215 224 234 248 255 261 262 263 263 262 261 259 256 252 251 250 251 250 252 254 255 257 257 257 258 257 259 259 255 256 258 262 264 266 271 269 266 269 263 257 262 274 277 276 271 268 270 287 288
354 356 357 355 356 350 346 339 338 338 333 333 340 343 343 356 353 357 342 174 190 222 205 205 183 226 206 232 214 239 247 234 218 223 218 214 218 227 239 245 251 259 266 267 266 263 260 257 254 253 252 250 248 250 251 255 256 258 253 258 262 261 259 256 254 254 255 256 259 263 265 270 268 264 262 259 263 251 248 259 272 283 287 288 285
343 344 341 340 344 333 329 333 325 336 331 346 351 9 19 22 19 22 19 50 63 106 173 179 177 174 183 197 206 206 207 220 212 228 239 241 238 242 251 261 265 264 261 261 261 260 258 259 255 254 254 253 253 253 254 254 256 256 253 254 257 259 259 257 258 259 261 262 262 261 264 264 266 271 269 268 264 271 279 275 276 284 283 277 272
331 334 333 335 327 326 323 316 325 335 334 337 6 0 6 14 4 349 349 345 318 268 252 235 239 226 213 206 206 212 212 210 217 231 283 272 262 257 254 255 258 261 265 264 261 258 257 258 257 256 256 254 249 242 238 240 241 246 256 255 256 256 255 257 258 258 259 260 261 263 263 264 265 263 269 272 279 280 276 269 266 267 272 277 276
317 319 319 320 319 313 312 315 313 307 341 326 323 318 339 345 326 330 338 339 330 325 324 309 301 297 299 291 270 250 245 249 182 188 197 224 247 260 269 267 263 260 257 258 260 257 255 256 257 257 252 244 239 234 238 235 231 237 239 245 253 253 257 256 254 255 258 258 261 258 258 261 260 262 262 265 267 266 271 274 274 273 272 276 279
307 311 314 315 313 311 309 308 298 305 306 304 304 310 307 303 304 307 309 307 304 302 287 280 279 272 272 271 270 266 267 249 202 197 201 210 231 256 263 264 263 262 261 259 259 261 260 260 259 260 257 257 262 252 235 227 230 232 233 237 236 243 248 252 257 256 256 257 258 258 261 259 263 261 261 256 257 260 262 267 264 263 266 268 269
305 306 308 308 308 307 302 293 291 294 296 303 307 304 303 304 312 320 319 327 318 308 308 304 291 282 275 277 276 270 263 216 202 207 213 221 229 244 261 267 267 264 263 262 261 263 263 263 263 260 261 255 251 251 259 259 225 220 229 229 235 234 236 240 244 250 257 258 258 257 256 264 264 256 255 256 261 269 270 267 270 269 264 265 266
298 300 301 302 304 304 300 298 299 303 307 302 298 297 301 307 319 309 302 297 296 299 295 291 289 283 280 279 276 275 272 270 211 211 212 215 222 225 263 266 267 268 268 269 267 265 264 264 263 260 258 257 255 257 257 253 262 250 223 222 230 229 230 233 235 238 243 248 251 255 255 256 257 261 263 262 255 257 261 262 264 265 261 262 270
289 290 294 297 299 299 299 299 301 305 300 292 283 288 291 293 290 292 295 298 297 298 300 297 296 291 287 285 284 280 276 255 218 205 209 216 224 230 256 259 262 261 260 259 261 262 262 261 261 263 263 262 259 266 262 260 256 253 257 249 233 235 234 224 221 225 227 234 243 249 253 254 256 256 257 263 263 248 251 261 269 274 278 271 272
288 289 291 294 295 296 295 295 295 292 290 283 282 288 295 299 300 300 298 298 297 296 295 294 294 293 291 289 287 285 286 250 217 213 214 221 230 249 259 259 257 256 255 254 254 254 254 255 256 257 260 260 260 256 258 270 264 259 258 256 256 250 244 238 226 218 226 231 234 241 249 249 250 252 252 256 256 251 249 252 255 253 259 258 257
288 288 287 287 290 291 290 295 296 295 296 295 290 291 296 297 295 296 296 297 296 296 297 296 293 291 292 292 291 292 289 282 227 218 215 222 234 268 271 270 266 262 259 257 256 255 252 253 254 258 258 260 260 253 246 242 257 258 258 260 258 257 253 249 235 227 228 234 240 245 250 264 266 262 258 260 264 271 265 255 250 264 261 254 254
290 289 288 290 289 285 287 291 292 291 288 290 294 293 291 292 294 296 295 298 298 298 297 294 294 294 294 294 292 291 292 293 283 223 210 215 228 270 278 275 272 268 269 267 266 265 263 268 268 266 265 264 266 266 254 232 253 252 253 255 257 257 257 258 256 251 230 229 234 232 237 242 245 250 247 243 232 228 247 247 253 259 256 254 253
289 290 289 286 285 285 288 291 285 278 278 280 284 287 291 296 298 296 294 295 295 296 295 295 295 294 293 294 295 290 288 286 281 272 234 220 222 269 272 272 269 269 269 267 264 261 261 257 253 254 262 266 273 273 255 233 258 253 253 254 255 256 256 259 256 254 255 247 233 232 234 234 240 245 248 238 227 225 238 248 251 249 249 248 250
295 293 286 280 278 279 284 284 278 275 279 283 283 284 290 289 291 295 296 295 297 299 299 299 299 296 295 291 288 288 288 287 288 289 276 243 227 256 273 271 269 269 266 267 270 272 273 269 266 258 245 258 273 268 252 222 253 257 255 254 258 261 267 265 261 260 256 255 257 251 243 242 242 242 244 237 220 217 227 233 236 239 242 241 242
298 296 291 284 279 282 285 278 276 277 276 279 278 283 288 290 294 295 296 296 297 299 300 297 295 294 294 295 293 292 292 292 291 288 275 250 236 234 265 266 270 271 273 272 270 274 278 277 283 286 283 247 233 242 246 234 232 256 261 258 257 277 304 278 276 285 277 273 262 255 254 248 247 245 243 241 235 223 219 220 224 227 231 235 235
299 294 291 293 301 298 289 284 281 278 280 282 282 285 286 289 291 293 295 297 297 295 297 295 294 294 295 294 292 291 291 292 289 288 280 262 243 238 256 269 273 276 276 279 282 277 273 276 277 285 281 281 286 273 263 259 250 244 256 263 272 277 280 277 277 271 268 262 258 254 252 249 245 244 243 243 239 233 228 221 217 221 224 228 232
302 297 294 288 282 278 281 284 282 276 277 276 279 282 284 288 293 296 295 296 295 295 295 297 297 296 295 295 294 294 294 292 290 289 287 280 263 249 254 264 286 282 278 282 282 283 280 279 274 275 1 18 10 346 298 281 270 248 257 270 273 269 265 263 265 266 264 261 258 253 252 252 247 243 241 243 240 236 234 228 227 224 223 224 226
305 304 306 299 297 295 294 290 282 282 282 283 283 283 285 291 295 297 298 296 295 297 298 300 297 295 296 296 297 297 296 293 289 283 284 281 241 246 240 241 253 269 281 284 286 286 286 281 296 341 323 311 313 302 295 287 282 296 304 294 296 293 267 258 255 254 254 257 258 254 250 247 248 245 240 240 242 239 233 233 231 230 228 228 226
308 305 297 298 301 298 294 290 290 291 289 291 290 290 292 296 297 299 299 298 298 301 302 298 297 299 298 297 297 295 292 293 292 291 281 219 214 225 232 239 245 248 266 281 279 279 291 311 313 302 302 298 293 289 277 263 251 245 246 250 257 262 254 250 252 249 247 245 245 248 247 244 240 242 243 245 244 246 241 236 236 237 237 236 236
317 315 314 312 308 307 303 302 297 291 282 276 281 287 296 300 303 306 300 302 307 309 307 303 301 302 304 305 301 300 301 298 296 296 298 296 279 254 250 253 264 272 270 276 282 282 280 277 277 278 277 273 271 270 268 267 266 256 245 238 247 246 245 243 243 244 242 243 240 239 241 240 239 237 238 241 242 240 242 238 235 232 230 235 235
328 327 334 326 322 312 296 299 306 298 292 295 296 300 302 314 315 308 311 317 322 314 309 308 306 306 305 301 299 298 296 295 296 297 298 311 329 340 333 306 275 257 259 273 266 265 261 254 259 264 273 281 281 278 279 280 279 268 255 247 245 243 241 238 236 236 239 237 239 238 237 240 241 237 234 234 236 236 237 241 239 238 233 235 237
304 312 311 304 299 302 302 300 289 295 303 305 305 309 318 318 312 316 324 335 337 327 317 310 306 304 302 300 300 299 299 300 301 312 341 340 324 317 312 303 297 296 293 290 292 296 299 300 296 284 277 271 263 260 254 254 251 252 249 247 245 241 239 238 237 238 236 238 237 239 240 236 236 235 233 229 232 233 230 233 237 239 235 234 237
299 309 312 314 315 320 316 315 312 307 306 310 315 325 341 325 318 311 323 343 352 325 312 304 303 306 305 304 307 305 301 300 301 349 329 323 317 310 304 301 301 298 293 301 301 294 288 284 281 277 271 266 261 258 257 255 256 252 249 243 241 240 239 236 234 233 233 233 234 233 235 236 235 233 233 233 229 229 230 233 234 236 236 232 237
318 317 321 322 325 324 317 313 314 316 314 312 319 324 45 79 311 312 309 325 89 297 286 300 311 313 306 301 304 305 303 304 319 316 306 302 297 291 285 285 283 282 285 286 284 283 277 275 271 270 268 264 262 259 258 257 256 255 249 247 245 244 241 238 236 235 232 232 234 235 234 233 234 231 230 233 231 231 229 231 232 228 232 230 232
320 322 328 329 341 325 319 326 330 328 339 357 354 340 325 318 245 221 227 272 261 239 256 275 286 290 301 308 306 303 301 297 293 294 301 300 296 292 288 284 282 278 276 280 280 276 279 273 270 265 261 259 259 258 258 257 255 254 253 250 247 243 240 239 237 235 234 234 234 235 236 234 233 234 232 230 231 231 229 228 230 232 228 228 230
326 328 331 330 335 342 335 337 336 343 351 349 338 327 320 317 320 184 195 196 198 237 280 287 289 290 287 285 296 310 308 311 311 307 301 299 297 297 293 290 286 283 279 273 274 273 267 266 264 263 262 261 260 261 260 259 258 254 254 253 249 246 242 239 235 235 234 233 232 233 233 235 235 232 234 233 230 232 231 228 227 228 229 229 230
330 334 338 340 337 354 340 335 336 342 343 338 329 314 311 323 332 345 211 167 172 213 270 273 277 280 283 288 292 298 306 311 310 310 309 308 305 303 302 296 289 284 282 276 270 269 268 267 267 266 267 264 263 261 259 256 255 256 255 255 253 249 246 242 240 237 235 235 232 231 230 230 233 234 231 233 233 231 229 232 229 227 226 226 226
336 352 354 340 335 346 337 337 334 331 337 310 303 295 309 332 340 333 333 345 349 217 207 218 239 277 311 323 319 325 324 318 316 315 314 313 311 307 303 299 291 278 268 270 270 268 268 269 267 266 265 264 264 262 260 257 254 252 252 250 252 250 249 246 241 238 235 234 233 233 230 228 227 228 230 228 229 230 228 229 231 228 224 222 224
339 132 186 297 347 339 335 336 331 345 331 306 306 313 324 335 331 325 330 328 328 330 340 343 0 354 328 324 330 328 322 321 320 320 319 317 315 314 307 302 303 304 287 281 279 278 278 276 276 275 272 268 266 265 263 260 258 253 250 250 248 248 245 243 242 240 235 232 231 231 229 227 226 225 225 225 225 225 227 227 229 230 230 222 220
356 359 5 262 324 345 339 340 335 337 336 333 329 316 319 322 319 320 316 308 317 332 330 333 330 329 314 306 329 328 328 328 327 326 323 320 321 322 322 321 314 310 304 296 291 286 284 281 278 278 276 273 270 268 265 265 262 260 255 251 248 245 244 239 239 238 237 235 230 227 228 226 225 224 223 225 225 225 225 225 226 227 229 227 221
6 7 359 2 345 345 341 330 353 357 326 316 321 333 333 315 309 309 311 320 328 327 323 326 330 328 332 342 343 335 336 331 325 320 317 318 321 327 326 320 314 309 306 304 301 297 290 284 281 279 277 276 271 267 266 262 261 258 257 253 252 249 244 242 236 235 234 235 232 225 223 224 222 221 222 223 222 222 223 225 227 227 225 226 229
40 17 7 358 346 333 337 347 19 316 326 346 340 336 332 333 332 328 331 330 327 318 320 332 327 321 332 336 339 341 334 326 326 333 332 333 338 333 326 317 310 303 301 300 301 300 297 292 286 281 277 275 274 271 268 265 262 260 257 254 250 248 246 243 238 236 235 234 231 229 222 221 221 217 217 221 221 221 221 222 225 225 224 223 224
60 122 44 320 291 348 356 2 6 354 4 335 355 349 347 346 348 351 343 343 341 334 330 324 325 334 343 342 338 338 332 330 334 326 330 333 328 321 315 312 309 305 300 298 296 294 294 295 292 287 283 279 276 273 270 267 262 262 260 257 254 251 247 243 240 236 233 232 229 227 223 218 219 220 215 217 220 220 221 221 223 226 224 218 218
3 47 63 346 347 14 1 6 3 355 3 351 359 357 3 1 356 350 348 349 341 333 329 330 337 348 350 343 338 333 325 316 313 315 314 321 325 326 322 312 309 307 307 303 299 296 294 292 292 291 289 283 278 276 272 269 263 257 255 251 251 246 241 239 236 236 234 230 230 229 225 219 216 220 220 219 216 217 217 221 222 225 226 221 216
13 39 22 50 7 332 31 356 22 1 358 5 359 4 9 353 349 341 346 339 340 338 339 341 339 343 344 333 312 313 311 312 317 317 319 318 321 324 330 330 318 316 310 307 308 306 300 298 294 294 293 291 289 285 282 278 272 262 252 254 254 252 249 243 237 234 233 228 222 224 225 213 209 216 224 220 216 214 216 218 223 225 225 226 220
14 22 22 19 19 21 11 16 4 8 2 11 14 8 355 349 347 346 344 341 345 339 339 339 340 340 340 322 314 311 311 326 320 316 316 314 319 323 328 324 326 322 313 311 312 311 308 305 298 297 298 296 293 288 286 281 273 267 265 257 253 251 248 243 236 230 230 229 224 219 218 216 212 213 220 225 219 217 215 215 220 224 223 219 215
27 21 29 25 23 22 7 13 7 11 13 11 7 1 345 335 353 348 351 349 345 340 338 341 340 339 335 338 322 310 331 337 330 322 322 324 326 324 322 325 323 323 319 312 302 299 303 308 308 305 306 303 298 296 292 290 285 275 265 255 253 256 250 245 236 229 223 223 221 214 211 207 208 212 218 223 228 218 209 212 215 223 225 219 213
34 42 47 32 20 28 25 10 15 12 10 344 323 3 354 354 4 1 355 351 351 345 344 345 342 342 339 342 340 341 342 336 334 330 331 332 332 329 327 328 328 325 320 313 307 311 314 314 312 306 302 303 302 301 295 289 287 282 270 260 255 251 250 246 235 228 223 216 214 212 208 207 206 209 216 222 223 218 213 212 213 219 224 217 213
36 30 29 37 28 25 26 26 7 13 359 355 11 8 7 4 7 5 360 355 353 347 345 345 344 344 342 343 344 340 339 334 333 335 336 334 332 333 330 329 326 319 316 324 324 319 317 316 314 311 307 306 301 298 300 300 290 279 269 261 260 256 244 238 235 228 219 214 209 207 207 204 205 209 213 214 217 216 213 211 212 218 218 216 208
30 37 30 30 37 31 20 24 7 7 10 11 4 10 10 8 9 3 1 355 350 345 343 347 346 344 343 342 341 339 337 336 338 339 336 334 333 331 327 326 323 320 316 316 320 322 321 316 316 316 313 311 307 308 308 310 301 291 284 273 265 267 261 250 239 216 206 210 209 205 203 205 207 207 210 213 209 208 212 213 213 216 215 211 209
37 35 27 32 27 35 25 23 21 359 13 17 11 10 10 7 6 358 5 359 347 345 345 349 345 347 343 341 340 338 339 341 340 338 335 331 329 329 329 328 324 322 320 316 319 323 317 318 317 316 316 314 312 309 319 326 323 303 288 278 280 283 285 246 207 208 210 216 215 209 206 204 207 206 208 210 212 212 217 213 212 213 213 207 210
38 40 36 23 22 22 29 18 24 10 15 17 17 6 7 2 5 2 0 355 356 353 349 351 348 347 343 342 342 339 341 338 337 336 335 335 335 333 330 325 321 322 319 318 316 314 317 320 317 320 321 317 315 316 325 330 323 314 306 297 301 312 311 310 257 212 209 211 214 213 205 204 204 207 204 208 213 212 210 213 218 215 207 198 205
35 37 38 29 24 22 23 20 20 17 15 6 13 13 7 4 8 3 0 358 355 356 351 352 349 348 344 344 342 341 341 339 338 338 338 337 337 335 332 330 327 323 323 319 315 316 319 324 320 321 322 319 315 315 320 324 323 322 318 314 308 308 301 286 275 245 203 206 214 212 204 203 202 202 201 204 209 210 209 212 217 216 209 209 197
45 42 33 29 30 26 20 20 20 20 15 9 12 12 7 5 7 7 0 357 358 358 354 351 349 349 345 345 347 344 345 341 340 340 338 337 337 334 333 332 329 327 324 319 320 319 319 315 309 309 322 324 319 317 318 319 321 321 323 318 314 310 303 286 255 244 221 203 210 206 205 202 204 202 201 204 206 203 209 213 212 208 201 206 208
48 40 40 34 26 25 23 18 18 19 17 11 7 11 9 7 2 8 3 357 358 357 355 351 351 349 349 347 347 345 346 341 340 338 337 338 337 335 334 332 330 329 328 325 322 323 321 318 315 316 318 322 322 323 330 329 326 330 325 322 324 325 320 301 261 221 216 210 200 198 202 203 202 201 198 199 204 206 207 211 212 206 196 201 205